Find Starlink 31040

NORAD ID: 58722 Int'l Des: 2024-002 Owner: SPXS Country: US Constellation: starlink operational
LEOCIRCULAR

实时位置

正在加载3D地球...

关于 Starlink 31040

正在加载描述...

即将过境

Passes for default location (London). Set your location on the main map for personalized predictions.

高度历史

Loading altitude history...

两行轨道根数

1 58722U 24002T 26121.85319809 -.00000247 00000-0 37813-5 0 9998
2 58722 53.1612 343.0782 0001061 96.8154 263.2968 15.30190161130155
Epoch: May 1, 2026 • Age: 5 hours

当前状态

高度 475.3 km
速度 7.63 km/s
星下点 9.88°N, 111.14°E
发射日期 Jan 3, 2024
运行时间 2.3 years
类型 internet

技术详情

分类 Payload
质量 730.00 kg
干质量 700.00 kg
总质量 730.00 kg
长度 0.30 m
直径 4.10 m
跨度 29.00 m
形状 Box + pan
制造商 SPXS
平台类型 Starlink V2M
阶段状态 In Orbit
所有者/国家 SPXS/US

Most Searched